Flag for France Weather past 2 weeks in Istres, France

Now
41 °F

Clear.


Feels Like: 36 °F
Forecast: 36 / 44 °F
Wind: 8 mph from West

Location: Istres Airport

Current Time: Dec 28, 2014 at 12:36:58 AM

Latest Report: Dec 28, 2014 at 12:00 AM


Visibility: N/A

Pressure: 29.71 "Hg

Humidity: 76%

Dew point: 34 °F

Location of IstresLocation

Historic Weather in Istres — Graph

°F

Istres temperature yesterday

Maximum temperature yesterday: 54 °F (at 1:00 PM)
Minimum temperature yesterday: 36 °F (at 1:30 AM)
Average temperature yesterday: 42 °F

Past Weeks' High & Low Weather Summary

 TemperatureHumidityPressure
High64 °F (Dec 19, 1:00 PM)100% (Dec 14, 6:00 AM)30.48 "Hg (Dec 14, 6:00 AM)
Low34 °F (Dec 23, 7:00 AM)43% (Dec 26, 2:30 PM)29.71 "Hg (Dec 27, 10:00 PM)
Average50 °F76%30.17 "Hg
* Reported Dec 12 11:00 PM — Dec 27 11:30 PM, Istres, Weather by CustomWeather, © 2014

Note: Actual official high and low records may vary slightly from our data, if they occured in-between our weather recording intervals... More about our weather records

Advertising

Istres weather history for previous 24 hours

 ConditionsComfort  
Time TempWeatherWind HumidityBarometerVisibility
11:30 PM
Dec 27
45 °FClear.8 mph57%29.71 "HgN/A
11:00 PM39 °FClear.6 mph81%29.71 "HgN/A
10:30 PM39 °FClear.7 mph81%29.74 "HgN/A
10:00 PM41 °FClear.7 mph76%29.71 "HgN/A
9:30 PM41 °FClear.5 mph87%29.77 "HgN/A
9:00 PM41 °FClear.5 mph87%29.77 "HgN/A
8:30 PM41 °FClear.8 mph87%29.77 "HgN/A
8:00 PM41 °FClear.6 mph87%29.77 "HgN/A
7:30 PM45 °FClear.9 mph76%29.77 "HgN/A
7:00 PM43 °FClear.9 mph87%29.77 "HgN/A
6:30 PM43 °FClear.8 mph87%29.77 "HgN/A
6:00 PM45 °FClear.7 mph87%29.77 "HgN/A
5:30 PM46 °FClear.9 mph82%29.77 "HgN/A
5:00 PM46 °FClear.9 mph82%29.77 "HgN/A
4:30 PM48 °FClear.12 mph76%29.77 "HgN/A
4:00 PM50 °FClear.17 mph62%29.77 "HgN/A
3:30 PM50 °FClear.17 mph71%29.74 "HgN/A
3:00 PM52 °FOvercast.20 mph72%29.74 "HgN/A
2:30 PM52 °FBroken clouds.24 mph72%29.77 "HgN/A
2:00 PM52 °FClear.18 mph77%29.77 "HgN/A
1:30 PM54 °FClear.22 mph77%29.77 "HgN/A
1:00 PM54 °FClear.24 mph77%29.80 "HgN/A
12:30 PM50 °FPartly sunny.12 mph88%29.80 "HgN/A
12:00 PM48 °FMostly cloudy.3 mph87%29.86 "HgN/A
11:30 AM45 °FPartly sunny.2 mph87%29.89 "HgN/A
11:00 AM43 °FLight rain. Mostly cloudy.6 mph81%29.92 "HgN/A
10:30 AM43 °FMostly cloudy.8 mph71%29.92 "HgN/A
10:00 AM41 °FMostly cloudy.9 mph76%29.95 "HgN/A
9:30 AM41 °FPartly sunny.8 mph70%29.98 "HgN/A
9:00 AM39 °FMostly cloudy.9 mph75%29.98 "HgN/A
8:30 AM39 °FMostly cloudy.9 mph81%30.01 "HgN/A
8:00 AM39 °FPassing clouds.9 mph75%30.04 "HgN/A
7:30 AM39 °FClear.10 mph75%30.07 "HgN/A
7:00 AM39 °FPassing clouds.8 mph81%30.07 "HgN/A
6:30 AM37 °FClear.5 mph81%30.09 "HgN/A
6:00 AM37 °FClear.5 mph81%30.09 "HgN/A
5:30 AM36 °FClear.No wind87%30.12 "HgN/A
4:30 AM37 °FClear.2 mph81%30.15 "HgN/A
4:00 AM37 °FChilly.3 mph81%30.18 "HgN/A
3:30 AM37 °FChilly.7 mph81%30.18 "HgN/A
3:00 AM36 °FClear.7 mph87%30.21 "HgN/A
2:30 AM36 °FClear.10 mph81%30.21 "HgN/A
2:00 AM36 °FClear.12 mph81%30.21 "HgN/A
1:30 AM36 °FClear.9 mph81%30.21 "HgN/A
1:00 AM37 °FClear.10 mph75%30.21 "HgN/A
12:30 AM37 °FClear.12 mph75%30.24 "HgN/A
12:00 AM39 °FClear.14 mph70%30.24 "HgN/A
Weather by CustomWeather, © 2014

See weather overviewHow to use our weather pages